Hourly Data Report for August 16, 2022

PORT ALBERNI (AUT)
BRITISH COLUMBIA
Current Station Operator: ECCC - MSC

49°18'59.700" N
124°55'36.600" W
76.20 m
1036B06
71475
WQC

Download Data

Hourly Data (August 2022)
Hourly Data Report for August 16, 2022
TIME
LST
Temp Definition
°C
Dew Point Definition
°C
Rel Hum Definition
%
Precip. Amount Definition
mm

Wind Dir Definition
10's deg

Wind Spd Definition
km/h
Visibility Definition
km
Stn Press Definition
kPa
Hmdx Definition


Wind Chill Definition


Weather Definition


00:00 17.4 14.6 83 0.0 10 11   100.86     LegendNANA
01:00 16.5 14.2 86 0.0 11 13   100.89     LegendNANA
02:00 16.3 14.2 87 0.0 10 11   100.90     LegendNANA
03:00 14.7 13.2 91 0.0 12 3   100.93     LegendNANA
04:00 13.4 12.5 94 0.0 29 2   100.98     LegendNANA
05:00 13.1 12.4 96 0.0 33 2   100.97     LegendNANA
06:00 14.1 13.4 96 0.0 32 7   101.04     LegendNANA
07:00 15.9 14.1 89 0.0 0 1   101.08     LegendNANA
08:00 17.3 13.9 80 0.0 12 3   101.07     LegendNANA
09:00 18.7 13.9 74 0.0 29 2   101.07     LegendNANA
10:00 20.8 13.3 62 0.0 26 2   101.04     LegendNANA
11:00 23.4 13.0 52 0.0 33 3   101.00 26   LegendNANA
12:00 26.1 11.4 40 0.0 4 6   100.95 28   LegendNANA
13:00 27.4 12.1 39 0.0 33 7   100.92 30   LegendNANA
14:00 28.4 11.8 36 0.0 1 4   100.87 31   LegendNANA
15:00 30.3 13.1 35 0.0 15 7   100.81 33   LegendNANA
16:00 29.3 12.6 36 0.0 15 9   100.79 32   LegendNANA
17:00 29.1 13.7 39 0.0 13 13   100.78 32   LegendNANA
18:00 28.6 13.4 39 0.0 13 11   100.76 32   LegendNANA
19:00 26.1 14.5 49 0.0 17 4   100.76 30   LegendNANA
20:00 21.0 15.4 70 0.0 8 1   100.80 25   LegendNANA
21:00 18.8 15.1 79 0.0   0   100.84     LegendNANA
22:00 17.1 15.0 87 0.0 28 1   100.85     LegendNANA
23:00 15.9 14.5 91 0.0   0   100.86     LegendNANA

Notes on Data Quality.

Legend

  • E = Estimated
  • M = Missing
  • NA = Not Available*
  • [empty] = Indicates an unobserved value
Date modified: